CW1792 Weather Reports


Display with metric or nautical units.
time (UTC)temp
F
wind
direction
speed
MPH
gust
MPH
rain 1hr
in
rain 24hr
in
rain mn
in
humidity
%
barometer
mb
20170921160321 60 318 5.0 10.0 0.00 0.00 0.00 60 1012.8
20170921155822 60 350 5.0 12.0 0.00 0.00 0.00 60 1012.7
20170921155322 59 348 5.0 8.0 0.00 0.00 0.00 60 1012.5
20170921154822 59 350 3.0 8.0 0.00 0.00 0.00 61 1012.5
20170921154322 58 312 3.0 10.0 0.00 0.00 0.00 62 1012.5
20170921153821 58 328 2.0 9.0 0.00 0.00 0.00 65 1012.4
20170921153322 58 357 1.0 3.0 0.00 0.00 0.00 65 1012.4
20170921152822 57 58 1.0 2.0 0.00 0.00 0.00 66 1012.4
20170921152322 57 58 0.0 2.0 0.00 0.00 0.00 68 1012.4
20170921151821 56 58 0.0 1.0 0.00 0.00 0.00 73 1012.5
20170921151321 56 59 0.0 2.0 0.00 0.00 0.00 71 1012.5
20170921150821 56 56 1.0 2.0 0.00 0.00 0.00 71 1012.4
20170921150322 55 301 1.0 2.0 0.00 0.00 0.00 74 1012.5
20170921145821 55 284 0.0 2.0 0.00 0.00 0.00 74 1012.4
20170921145322 55 284 0.0 1.0 0.00 0.00 0.00 76 1012.4
20170921144821 55 284 0.0 1.0 0.00 0.00 0.00 75 1012.4
20170921144321 55 284 0.0 1.0 0.00 0.00 0.00 74 1012.3
20170921143821 54 284 0.0 1.0 0.00 0.00 0.00 75 1012.2
20170921143322 54 284 0.0 0.0 0.00 0.00 0.00 77 1012.1
20170921142822 54 284 1.0 2.0 0.00 0.00 0.00 76 1012.0
20170921142321 54 274 0.0 0.0 0.00 0.00 0.00 75 1012.0
20170921141821 54 277 1.0 3.0 0.00 0.00 0.00 75 1012.0
20170921141321 54 285 1.0 5.0 0.00 0.00 0.00 74 1011.9
20170921140822 54 289 2.0 9.0 0.00 0.00 0.00 74 1011.8
20170921140322 54 171 1.0 3.0 0.00 0.00 0.00 73 1011.8
20170921135821 54 268 1.0 3.0 0.00 0.00 0.00 73 1011.7
20170921135321 54 289 3.0 7.0 0.00 0.00 0.00 74 1011.8
20170921134822 54 270 1.0 5.0 0.00 0.00 0.00 73 1011.7
20170921134322 55 244 1.0 6.0 0.00 0.00 0.00 72 1011.6
20170921133821 55 237 2.0 5.0 0.00 0.00 0.00 73 1011.6
20170921133321 55 289 2.0 5.0 0.00 0.00 0.00 72 1011.6
20170921132821 55 282 2.0 7.0 0.00 0.00 0.00 73 1011.5
20170921132321 54 255 2.0 8.0 0.00 0.00 0.00 73 1011.5
20170921131822 54 281 1.0 5.0 0.00 0.00 0.00 72 1011.4
20170921131321 54 271 2.0 5.0 0.00 0.00 0.00 72 1011.5
20170921130821 54 288 1.0 6.0 0.00 0.00 0.00 72 1011.5
20170921130321 54 244 2.0 7.0 0.00 0.00 0.00 73 1011.4
20170921125821 54 269 1.0 8.0 0.00 0.00 0.00 74 1011.3
20170921125322 54 225 1.0 3.0 0.00 0.00 0.00 75 1011.4
20170921124822 54 306 1.0 5.0 0.00 0.00 0.00 75 1011.4
20170921124321 54 252 1.0 3.0 0.00 0.00 0.00 76 1011.3
20170921123822 54 293 2.0 3.0 0.00 0.00 0.00 76 1011.4
20170921123321 54 271 2.0 3.0 0.00 0.00 0.00 77 1011.4
20170921122822 54 261 1.0 3.0 0.00 0.00 0.00 77 1011.4
20170921122321 54 258 1.0 3.0 0.00 0.00 0.00 77 1011.4
20170921121821 54 262 1.0 3.0 0.00 0.00 0.00 78 1011.4
20170921121321 54 302 1.0 3.0 0.00 0.00 0.00 80 1011.5
20170921120821 54 256 1.0 3.0 0.00 0.00 0.00 78 1011.6
20170921120321 54 240 1.0 6.0 0.00 0.00 0.00 79 1011.5
20170921115821 54 277 0.0 3.0 0.00 0.00 0.00 78 1011.5
20170921115321 54 268 1.0 3.0 0.00 0.00 0.00 78 1011.6
20170921114822 54 254 1.0 2.0 0.00 0.00 0.00 78 1011.6
20170921114322 54 323 1.0 2.0 0.00 0.00 0.00 79 1011.6
20170921113821 54 323 1.0 3.0 0.00 0.00 0.00 78 1011.6
20170921113321 54 260 1.0 2.0 0.00 0.00 0.00 79 1011.6
20170921112822 54 259 1.0 2.0 0.00 0.00 0.00 79 1011.7
20170921112322 54 259 1.0 2.0 0.00 0.00 0.00 78 1011.6
20170921111821 54 259 0.0 0.0 0.00 0.00 0.00 77 1011.6
20170921111322 54 260 0.0 2.0 0.00 0.00 0.00 78 1011.6
20170921110822 53 257 1.0 2.0 0.00 0.00 0.00 78 1011.5
20170921110322 54 294 0.0 1.0 0.00 0.00 0.00 77 1011.6
20170921105822 54 294 0.0 0.0 0.00 0.00 0.00 76 1011.5
20170921105322 54 294 1.0 2.0 0.00 0.00 0.00 76 1011.5
20170921104821 55 294 0.0 3.0 0.00 0.00 0.00 76 1011.5
20170921104322 55 294 1.0 3.0 0.00 0.00 0.00 75 1011.4
20170921103821 55 305 0.0 3.0 0.00 0.00 0.00 76 1011.4
20170921103321 55 315 1.0 5.0 0.00 0.00 0.00 76 1011.5
20170921102821 55 264 0.0 2.0 0.00 0.00 0.00 75 1011.5
20170921102322 56 293 1.0 3.0 0.00 0.00 0.00 74 1011.5
20170921101821 56 286 2.0 6.0 0.00 0.00 0.00 75 1011.5
20170921101322 56 240 1.0 3.0 0.00 0.00 0.00 75 1011.6
20170921100821 56 262 1.0 6.0 0.00 0.00 0.00 76 1011.7
20170921100321 56 262 1.0 6.0 0.00 0.00 0.00 75 1011.6
20170921095822 56 279 2.0 5.0 0.00 0.00 0.00 76 1011.7
20170921095321 56 251 1.0 3.0 0.00 0.00 0.00 76 1011.8
20170921094822 55 282 2.0 5.0 0.00 0.00 0.00 77 1011.8
20170921094321 55 298 1.0 3.0 0.00 0.00 0.00 77 1011.8
20170921093822 56 285 1.0 2.0 0.00 0.00 0.00 76 1011.8
20170921093322 56 285 0.0 2.0 0.00 0.00 0.00 74 1011.9
20170921092821 56 287 2.0 3.0 0.00 0.00 0.00 74 1011.9
20170921092321 57 261 1.0 3.0 0.00 0.00 0.00 74 1011.9
20170921091821 57 270 1.0 5.0 0.00 0.00 0.00 74 1011.9
20170921091322 57 264 1.0 3.0 0.00 0.00 0.00 73 1011.9
20170921090821 57 257 1.0 3.0 0.00 0.00 0.00 74 1011.9
20170921090321 57 304 1.0 2.0 0.00 0.00 0.00 72 1012.1
20170921085821 57 271 2.0 3.0 0.00 0.00 0.00 72 1012.2
20170921085322 57 288 1.0 8.0 0.00 0.00 0.00 72 1012.2
20170921084821 57 287 1.0 3.0 0.00 0.00 0.00 74 1012.2
20170921084322 57 289 1.0 3.0 0.00 0.00 0.00 74 1012.1
20170921083821 57 301 1.0 3.0 0.00 0.00 0.00 74 1012.1
20170921083321 58 280 1.0 3.0 0.00 0.00 0.00 73 1012.2
20170921082822 58 307 1.0 3.0 0.00 0.00 0.00 73 1012.2
20170921082321 58 280 2.0 5.0 0.00 0.00 0.00 72 1012.2
20170921081821 59 302 1.0 3.0 0.00 0.00 0.00 72 1012.1
20170921081322 59 307 2.0 3.0 0.00 0.00 0.00 70 1012.1
20170921080821 60 309 1.0 6.0 0.00 0.00 0.00 70 1012.1
20170921080321 60 291 3.0 7.0 0.00 0.00 0.00 69 1012.1
20170921075821 60 285 2.0 7.0 0.00 0.00 0.00 69 1012.0
20170921075321 60 306 1.0 3.0 0.00 0.00 0.00 68 1012.0
20170921074821 61 284 2.0 5.0 0.00 0.00 0.00 69 1012.0
20170921074321 61 273 2.0 6.0 0.00 0.00 0.00 69 1012.1
20170921073821 61 267 1.0 3.0 0.00 0.00 0.00 68 1012.1
20170921073321 61 258 1.0 3.0 0.00 0.00 0.00 69 1012.1
20170921072821 61 263 2.0 7.0 0.00 0.00 0.00 69 1012.1
20170921072321 61 240 2.0 6.0 0.00 0.00 0.00 68 1012.1
20170921071822 61 273 3.0 6.0 0.00 0.00 0.00 67 1012.1
20170921071322 61 295 3.0 6.0 0.00 0.00 0.00 68 1012.0
20170921070821 61 318 1.0 3.0 0.00 0.00 0.00 67 1012.0
20170921070321 61 277 1.0 3.0 0.00 0.00 0.00 67 1012.0
20170921065821 61 311 2.0 6.0 0.00 0.00 0.00 65 1012.0
20170921065321 61 293 2.0 6.0 0.00 0.00 0.00 66 1012.0
20170921064821 61 281 2.0 6.0 0.00 0.00 0.00 67 1012.0
20170921064321 61 302 1.0 5.0 0.00 0.00 0.00 68 1012.0
20170921063821 61 276 2.0 8.0 0.00 0.00 0.00 69 1011.8
20170921063321 61 252 1.0 3.0 0.00 0.00 0.00 70 1011.9
20170921062821 61 242 1.0 3.0 0.00 0.00 0.00 71 1011.9
20170921062321 61 244 1.0 1.0 0.00 0.00 0.00 71 1012.0
20170921061821 61 244 1.0 2.0 0.00 0.00 0.00 71 1012.1
20170921061321 61 243 1.0 2.0 0.00 0.00 0.00 70 1012.1
20170921060821 61 241 0.0 1.0 0.00 0.00 0.00 71 1011.9
20170921060321 62 241 1.0 2.0 0.00 0.00 0.00 71 1012.0
20170921055821 62 274 0.0 0.0 0.00 0.00 0.00 70 1012.1
20170921055322 62 275 1.0 3.0 0.00 0.00 0.00 71 1012.1
20170921054821 62 265 0.0 0.0 0.00 0.00 0.00 71 1012.0
20170921054322 62 263 1.0 2.0 0.00 0.00 0.00 71 1012.2
20170921053822 62 264 0.0 3.0 0.00 0.00 0.00 71 1012.2
20170921053321 62 275 1.0 3.0 0.00 0.00 0.00 71 1012.2
20170921052821 62 321 3.0 6.0 0.00 0.00 0.00 69 1012.1
20170921052322 62 299 2.0 6.0 0.00 0.00 0.00 70 1012.0
20170921051821 62 305 2.0 5.0 0.00 0.00 0.00 70 1012.0
20170921051320 62 288 1.0 3.0 0.00 0.00 0.00 70 1012.1
20170921050821 62 279 1.0 3.0 0.00 0.00 0.00 70 1011.9
20170921050321 62 260 2.0 5.0 0.00 0.00 0.00 69 1012.0
20170921045821 63 293 1.0 6.0 0.00 0.00 0.00 69 1012.0
20170921045321 63 284 2.0 6.0 0.00 0.00 0.00 69 1012.0
20170921044822 63 267 2.0 7.0 0.00 0.00 0.00 69 1012.0
20170921044321 63 273 1.0 3.0 0.00 0.00 0.00 69 1011.9
20170921043821 63 254 1.0 3.0 0.00 0.00 0.00 69 1012.0
20170921043321 63 268 1.0 5.0 0.00 0.00 0.00 69 1012.0
20170921042821 63 258 2.0 6.0 0.00 0.00 0.00 69 1012.1
20170921042321 63 287 1.0 6.0 0.00 0.00 0.00 69 1012.0
20170921041821 63 275 1.0 5.0 0.00 0.00 0.00 69 1012.0
20170921041321 64 284 1.0 5.0 0.00 0.00 0.00 70 1011.9
20170921040821 64 280 1.0 3.0 0.00 0.00 0.00 71 1011.9
20170921040321 64 301 2.0 5.0 0.00 0.00 0.00 70 1011.9
20170921035821 64 294 2.0 6.0 0.00 0.00 0.00 70 1012.0
20170921035321 64 292 1.0 5.0 0.00 0.00 0.00 71 1011.9
20170921034821 64 292 1.0 3.0 0.00 0.00 0.00 71 1011.9
20170921034322 64 299 2.0 6.0 0.00 0.00 0.00 73 1011.9
20170921033821 64 278 2.0 6.0 0.00 0.00 0.00 72 1011.9
20170921033322 64 307 1.0 6.0 0.00 0.00 0.00 72 1011.8
20170921032821 64 303 2.0 5.0 0.00 0.00 0.00 72 1011.8
20170921032321 64 261 1.0 3.0 0.00 0.00 0.00 72 1011.8
20170921031821 64 283 2.0 5.0 0.00 0.00 0.00 72 1011.8
20170921031321 64 253 1.0 3.0 0.00 0.00 0.00 72 1011.8
20170921030821 65 261 1.0 7.0 0.00 0.00 0.00 72 1011.8
20170921030321 65 271 1.0 3.0 0.00 0.00 0.00 71 1011.8
20170921025821 65 303 1.0 3.0 0.00 0.00 0.00 72 1011.8
20170921025321 65 293 2.0 5.0 0.00 0.00 0.00 72 1011.8
20170921024821 65 265 1.0 5.0 0.00 0.00 0.00 71 1011.8
20170921024321 65 281 2.0 5.0 0.00 0.00 0.00 71 1011.8
20170921023821 65 249 2.0 9.0 0.00 0.00 0.00 71 1011.7
20170921023322 65 273 1.0 8.0 0.00 0.00 0.00 71 1011.7
20170921022821 65 279 2.0 10.0 0.00 0.00 0.00 72 1011.7
20170921022321 65 268 3.0 7.0 0.00 0.00 0.00 71 1011.7
20170921021821 65 291 3.0 8.0 0.00 0.00 0.00 71 1011.7
20170921021321 65 288 2.0 7.0 0.00 0.00 0.00 71 1011.7
20170921020821 66 312 3.0 7.0 0.00 0.00 0.00 71 1011.6
20170921020321 66 300 3.0 7.0 0.00 0.00 0.00 71 1011.6
20170921015821 66 294 2.0 8.0 0.00 0.00 0.00 71 1011.6
20170921015321 66 295 2.0 7.0 0.00 0.00 0.00 71 1011.6
20170921014821 66 311 2.0 10.0 0.00 0.00 0.00 70 1011.6
20170921014320 67 323 3.0 6.0 0.00 0.00 0.00 71 1011.7
20170921013821 67 260 2.0 6.0 0.00 0.00 0.00 72 1011.7
20170921013321 67 328 2.0 6.0 0.00 0.00 0.00 71 1011.7
20170921012821 67 314 4.0 12.0 0.00 0.00 0.00 70 1011.7
20170921012321 67 294 3.0 7.0 0.00 0.00 0.00 70 1011.8
20170921011821 67 314 3.0 8.0 0.00 0.00 0.00 71 1011.7
20170921011321 67 280 2.0 8.0 0.00 0.00 0.00 71 1011.8
20170921010821 68 294 4.0 10.0 0.00 0.00 0.00 70 1011.8
20170921010321 68 292 3.0 7.0 0.00 0.00 0.00 71 1011.7
20170921005820 68 292 3.0 12.0 0.00 0.00 0.00 71 1011.6
20170921005321 68 295 3.0 7.0 0.00 0.00 0.00 70 1011.7
20170921004820 69 291 3.0 6.0 0.00 0.00 0.00 70 1011.6
20170921004320 69 286 3.0 7.0 0.00 0.00 0.00 69 1011.4
20170921003821 69 253 2.0 6.0 0.00 0.00 0.00 69 1011.3
20170921003321 70 308 3.0 7.0 0.00 0.00 0.00 67 1011.4
20170921002821 70 266 2.0 7.0 0.00 0.00 0.00 68 1011.4
20170921002321 70 261 3.0 7.0 0.00 0.00 0.00 68 1011.4
20170921001822 71 291 3.0 8.0 0.00 0.00 0.00 68 1011.5
20170921001321 70 266 2.0 10.0 0.00 0.00 0.00 69 1011.5
20170921000821 70 300 5.0 13.0 0.00 0.00 0.00 68 1011.6
20170921000321 70 328 2.0 7.0 0.00 0.00 0.00 68 1011.6
20170920235821 70 302 4.0 7.0 0.00 0.00 0.00 67 1011.4
20170920235321 71 280 2.0 6.0 0.00 0.00 0.00 67 1011.3
20170920234821 71 257 4.0 8.0 0.00 0.00 0.00 66 1011.3
20170920234321 71 293 4.0 12.0 0.00 0.00 0.00 65 1011.4
20170920233821 72 290 3.0 10.0 0.00 0.00 0.00 65 1011.3
20170920233320 71 276 3.0 10.0 0.00 0.00 0.00 66 1011.3
20170920232821 71 239 3.0 8.0 0.00 0.00 0.00 67 1011.4
20170920232321 71 284 3.0 7.0 0.00 0.00 0.00 67 1011.5
20170920231821 71 252 4.0 8.0 0.00 0.00 0.00 66 1011.6
20170920231321 72 219 3.0 8.0 0.00 0.00 0.00 66 1011.5
20170920230821 72 272 3.0 8.0 0.00 0.00 0.00 67 1011.5
20170920230320 72 318 5.0 8.0 0.00 0.00 0.00 65 1011.6
20170920225821 73 270 2.0 8.0 0.00 0.00 0.00 65 1011.6
20170920225321 72 293 3.0 8.0 0.00 0.00 0.00 66 1011.7
20170920224820 72 282 4.0 10.0 0.00 0.00 0.00 65 1011.7
20170920224321 73 289 6.0 12.0 0.00 0.00 0.00 64 1011.8
20170920223821 73 308 3.0 12.0 0.00 0.00 0.00 64 1011.7
20170920223321 73 309 3.0 10.0 0.00 0.00 0.00 63 1011.6
20170920222820 73 298 5.0 10.0 0.00 0.00 0.00 61 1011.7
20170920222321 73 273 2.0 8.0 0.00 0.00 0.00 62 1011.6
20170920221821 74 278 3.0 12.0 0.00 0.00 0.00 61 1011.7
20170920221321 74 334 2.0 7.0 0.00 0.00 0.00 61 1011.7
20170920220821 75 294 2.0 8.0 0.00 0.00 0.00 60 1011.7
20170920220320 76 298 4.0 8.0 0.00 0.00 0.00 60 1011.7
20170920215821 75 224 2.0 6.0 0.00 0.00 0.00 63 1011.7
20170920215321 74 281 3.0 8.0 0.00 0.00 0.00 63 1011.8
20170920214821 73 348 3.0 10.0 0.00 0.00 0.00 67 1011.8
20170920214321 72 358 2.0 5.0 0.00 0.00 0.00 68 1011.9
20170920213821 72 336 4.0 7.0 0.00 0.00 0.00 67 1011.9
20170920213321 72 349 1.0 3.0 0.00 0.00 0.00 67 1011.9
20170920212821 72 330 2.0 5.0 0.00 0.00 0.00 68 1012.0
20170920212320 72 345 3.0 6.0 0.00 0.00 0.00 69 1012.1
20170920211821 72 6 1.0 5.0 0.00 0.00 0.00 67 1012.1
20170920211320 72 357 1.0 5.0 0.00 0.00 0.00 68 1012.2
20170920210820 71 328 2.0 5.0 0.00 0.00 0.00 68 1012.3
20170920210321 71 306 2.0 5.0 0.00 0.00 0.00 69 1012.4
20170920205821 71 301 2.0 6.0 0.00 0.00 0.00 69 1012.4
20170920205321 71 51 1.0 3.0 0.00 0.00 0.00 69 1012.5
20170920204821 71 326 2.0 3.0 0.00 0.00 0.00 70 1012.5
20170920204321 71 321 2.0 6.0 0.00 0.00 0.00 68 1012.6
20170920203820 70 24 2.0 3.0 0.00 0.00 0.00 69 1012.7
20170920203320 70 350 0.0 1.0 0.00 0.00 0.00 71 1012.8
20170920202821 70 350 1.0 3.0 0.00 0.00 0.00 71 1012.8
20170920202321 71 337 3.0 6.0 0.00 0.00 0.00 69 1012.9
20170920201820 71 3 2.0 3.0 0.00 0.00 0.00 70 1012.9
20170920201320 70 42 2.0 3.0 0.00 0.00 0.00 69 1013.0
20170920200820 70 272 1.0 3.0 0.00 0.00 0.00 71 1013.1
20170920200320 70 335 2.0 5.0 0.00 0.00 0.00 70 1013.2
20170920195821 70 348 2.0 5.0 0.00 0.00 0.00 71 1013.3
20170920195320 70 317 2.0 5.0 0.00 0.00 0.00 71 1013.3
20170920194820 70 335 4.0 8.0 0.00 0.00 0.00 70 1013.4
20170920194321 70 11 3.0 7.0 0.00 0.00 0.00 70 1013.4
20170920193821 70 9 3.0 6.0 0.00 0.00 0.00 70 1013.4
20170920193320 70 76 2.0 5.0 0.00 0.00 0.00 70 1013.5
20170920192821 70 24 3.0 6.0 0.00 0.00 0.00 70 1013.5
20170920192320 70 7 1.0 5.0 0.00 0.00 0.00 71 1013.5
20170920191821 69 0 2.0 7.0 0.00 0.00 0.00 71 1013.6
20170920191320 69 71 1.0 3.0 0.00 0.00 0.00 71 1013.7
20170920190820 69 340 2.0 5.0 0.00 0.00 0.00 71 1013.8
20170920190322 69 45 2.0 6.0 0.00 0.00 0.00 71 1013.8
20170920185821 70 347 1.0 3.0 0.00 0.00 0.00 71 1013.7
20170920185321 70 355 2.0 6.0 0.00 0.00 0.00 70 1013.7
20170920184820 70 15 2.0 6.0 0.00 0.00 0.00 71 1013.8
20170920184321 69 315 2.0 5.0 0.00 0.00 0.00 71 1013.9
20170920183821 69 319 1.0 3.0 0.00 0.00 0.00 71 1013.9
20170920183320 69 344 2.0 5.0 0.00 0.00 0.00 70 1013.9
20170920182821 69 1 3.0 7.0 0.00 0.00 0.00 71 1013.9
20170920182321 69 90 1.0 5.0 0.00 0.00 0.00 71 1014.0
20170920181821 70 330 2.0 5.0 0.00 0.00 0.00 69 1014.0
20170920181321 69 44 3.0 6.0 0.00 0.00 0.00 70 1014.1
20170920180821 68 22 2.0 5.0 0.00 0.00 0.00 74 1014.0
20170920180320 68 80 3.0 6.0 0.00 0.00 0.00 73 1014.1
20170920175821 68 87 2.0 6.0 0.00 0.00 0.00 73 1014.3
20170920175321 68 73 3.0 7.0 0.00 0.00 0.00 74 1014.3
20170920174820 68 115 3.0 6.0 0.00 0.00 0.00 75 1014.3
20170920174321 67 59 3.0 6.0 0.00 0.00 0.00 75 1014.4
20170920173820 67 44 4.0 7.0 0.00 0.00 0.00 76 1014.5
20170920173320 67 107 3.0 6.0 0.00 0.00 0.00 78 1014.5
20170920172821 66 158 2.0 6.0 0.00 0.00 0.00 79 1014.5
20170920172321 66 102 2.0 6.0 0.00 0.00 0.00 79 1014.6
20170920171821 66 67 2.0 3.0 0.00 0.00 0.00 79 1014.6
20170920171320 65 72 3.0 5.0 0.00 0.00 0.00 80 1014.6
20170920170821 65 120 1.0 6.0 0.00 0.00 0.00 80 1014.6
20170920170321 65 107 3.0 7.0 0.00 0.00 0.00 80 1014.7
20170920165821 64 103 2.0 7.0 0.00 0.00 0.00 82 1014.8
20170920165320 64 101 3.0 7.0 0.00 0.00 0.00 81 1014.8
20170920164821 64 77 2.0 6.0 0.00 0.00 0.00 82 1014.8
20170920164320 64 97 3.0 6.0 0.00 0.00 0.00 83 1014.9
20170920163821 63 94 1.0 2.0 0.00 0.00 0.00 82 1014.8
20170920163321 63 45 0.0 3.0 0.00 0.00 0.00 81 1014.8
20170920162821 63 72 1.0 3.0 0.00 0.00 0.00 82 1014.8
20170920162321 63 97 2.0 5.0 0.00 0.00 0.00 81 1014.7
20170920161820 63 71 2.0 5.0 0.00 0.00 0.00 81 1014.7
20170920161321 62 62 1.0 6.0 0.00 0.00 0.00 81 1014.7
20170920160821 62 85 1.0 3.0 0.00 0.00 0.00 82 1014.7